This is the latest recevied weather packets stored in our database for station/object W5COG. If no packets are shown the sender has not sent any weather packets the latest 10 day(s).
| Time | Temp. | Humidity | Pressure | Rain* | Wind** | Luminosity | Snow |
|---|---|---|---|---|---|---|---|
| 1777746927 | 19.44° C | 36% | 1020.9 hPa | 0 mm | - | 925 W/m² | - |
| 1777746627 | 19.44° C | 36% | 1020.9 hPa | 0 mm | - | 923 W/m² | - |
| 1777746327 | 19.44° C | 39% | 1020.9 hPa | 0 mm | - | 919 W/m² | - |
| 1777746027 | 19.44° C | 38% | 1021 hPa | 0 mm | - | 923 W/m² | - |
| 1777745727 | 18.89° C | 39% | 1021 hPa | 0 mm | - | 922 W/m² | - |
| 1777745427 | 18.89° C | 38% | 1021.1 hPa | 0 mm | - | 916 W/m² | - |
| 1777745127 | 18.89° C | 41% | 1021.2 hPa | 0 mm | - | 915 W/m² | - |
| 1777744827 | 18.89° C | 40% | 1021.3 hPa | 0 mm | - | 915 W/m² | - |
| 1777744527 | 18.89° C | 41% | 1021.4 hPa | 0 mm | - | 917 W/m² | - |
| 1777744227 | 19.44° C | 41% | 1021.4 hPa | 0 mm | - | 917 W/m² | - |
| 1777743927 | 19.44° C | 41% | 1021.4 hPa | 0 mm | - | 913 W/m² | - |
| 1777743627 | 19.44° C | 42% | 1021.4 hPa | 0 mm | - | 906 W/m² | - |
| 1777743327 | 19.44° C | 42% | 1021.4 hPa | 0 mm | - | 901 W/m² | - |
| 1777743027 | 19.44° C | 43% | 1021.4 hPa | 0 mm | - | 896 W/m² | - |
| 1777742727 | 18.89° C | 43% | 1021.4 hPa | 0 mm | - | 888 W/m² | - |
| 1777742427 | 18.89° C | 43% | 1021.5 hPa | 0 mm | - | 885 W/m² | - |
| 1777742127 | 18.89° C | 44% | 1021.5 hPa | 0 mm | - | 881 W/m² | - |
| 1777741827 | 18.89° C | 44% | 1021.5 hPa | 0 mm | - | 875 W/m² | - |
| 1777741527 | 18.33° C | 46% | 1021.6 hPa | 0 mm | - | 868 W/m² | - |
| 1777741227 | 18.33° C | 44% | 1021.6 hPa | 0 mm | - | 862 W/m² | - |
| 1777740927 | 18.33° C | 48% | 1021.6 hPa | 0 mm | - | 854 W/m² | - |
| 1777739727 | 17.78° C | 47% | 1021.7 hPa | 0 mm | - | 822 W/m² | - |
| 1777739427 | 17.78° C | 48% | 1021.6 hPa | 0 mm | - | 814 W/m² | - |
| 1777739127 | 17.78° C | 47% | 1021.7 hPa | 0 mm | - | 804 W/m² | - |
| 1777738827 | 17.22° C | 48% | 1021.7 hPa | 0 mm | - | 797 W/m² | - |
* Rain latest hour (hover to see other rain measurements)
** Current wind speed in m/s (hover to see current wind gust speed)